Flag for Switzerland Weather past 2 weeks in Muttenz, Basel-Land, Switzerland

Now
59 °F

Partly cloudy.


Feels Like: 58 °F
Forecast: 56 / 79 °F
Wind: 6 mph from Southeast

Location: Bale-Mulhouse

Current Time: Jun 2, 2015 at 5:54:06 AM

Latest Report: Jun 2, 2015 at 5:00 AM


Visibility: N/A

Pressure: 30.07 "Hg

Humidity: 88%

Dew point: 55 °F

Location of MuttenzLocation

Historic Weather in Muttenz — Graph

°F

Muttenz temperature yesterday

Maximum temperature yesterday: 72 °F (at 12:00 PM)
Minimum temperature yesterday: 57 °F (at 4:30 AM)
Average temperature yesterday: 65 °F

Past Weeks' High & Low Weather Summary

 TemperatureHumidityPressure
High77 °F (May 29, 3:30 PM)100% (May 18, 4:30 AM)30.30 "Hg (May 18, 4:30 AM)
Low39 °F (May 22, 5:00 AM)31% (May 29, 4:00 PM)29.77 "Hg (May 18, 6:30 PM)
Average58 °F68%30.05 "Hg
* Reported May 18 4:00 AM — Jun 2 4:30 AM, Muttenz, Weather by CustomWeather, © 2015

Note: Actual official high and low records may vary slightly from our data, if they occured in-between our weather recording intervals... More about our weather records

Advertising

Muttenz weather history for previous 24 hours

 ConditionsComfort  
Time TempWeatherWind HumidityBarometerVisibility
4:30 AM
Tue, Jun 2
59 °FPassing clouds.2 mph88%30.07 "HgN/A
4:00 AM57 °FOvercast.1 mph94%30.07 "HgN/A
3:30 AM55 °FPassing clouds.No wind94%30.07 "HgN/A
3:00 AM55 °FMostly cloudy.1 mph94%30.07 "HgN/A
2:30 AM57 °FPassing clouds.3 mph88%30.07 "HgN/A
2:00 AM55 °FPassing clouds.2 mph94%30.07 "HgN/A
1:30 AM55 °FPassing clouds.3 mph94%30.07 "HgN/A
1:00 AM57 °FPassing clouds.2 mph88%30.07 "HgN/A
12:30 AM57 °FClear.1 mph88%30.07 "Hg10 mi
12:00 AM57 °FPartly cloudy.2 mph88%30.07 "HgN/A
11:30 PM
Mon, Jun 1
59 °FPartly cloudy.3 mph82%30.07 "HgN/A
11:00 PM57 °FPassing clouds.3 mph88%30.07 "HgN/A
10:30 PM59 °FPartly cloudy.5 mph77%30.07 "HgN/A
10:00 PM59 °FBroken clouds.7 mph82%30.07 "HgN/A
9:30 PM61 °FBroken clouds.5 mph77%30.04 "HgN/A
9:00 PM63 °FBroken clouds.5 mph73%30.04 "HgN/A
8:30 PM66 °FScattered clouds.5 mph64%30.04 "HgN/A
8:00 PM66 °FScattered clouds.7 mph64%30.04 "HgN/A
7:30 PM68 °FScattered clouds.8 mph60%30.04 "HgN/A
7:00 PM70 °FScattered clouds.12 mph60%30.04 "HgN/A
6:30 PM72 °FScattered clouds.10 mph57%30.07 "HgN/A
6:00 PM70 °FPassing clouds.12 mph60%30.04 "HgN/A
5:30 PM70 °FScattered clouds.13 mph60%30.07 "HgN/A
5:00 PM72 °FScattered showers. Scattered clouds.14 mph61%30.04 "HgN/A
4:30 PM70 °FSprinkles. Broken clouds.14 mph64%30.04 "HgN/A
4:00 PM72 °FScattered showers. Scattered clouds.12 mph61%30.04 "HgN/A
3:30 PM72 °FScattered showers. Scattered clouds.10 mph61%30.04 "HgN/A
3:00 PM72 °FScattered showers. Scattered clouds.13 mph65%30.04 "HgN/A
2:30 PM70 °FScattered showers. Broken clouds.15 mph60%30.04 "HgN/A
2:00 PM70 °FPartly sunny.13 mph64%30.04 "HgN/A
1:30 PM72 °FScattered showers. Broken clouds.12 mph61%30.04 "HgN/A
1:00 PM72 °FScattered showers. Broken clouds.12 mph57%30.04 "HgN/A
12:30 PM72 °FScattered showers. Broken clouds.12 mph57%30.04 "HgN/A
12:00 PM72 °FBroken clouds.9 mph61%30.04 "HgN/A
11:30 AM70 °FBroken clouds.8 mph60%30.04 "HgN/A
11:00 AM70 °FBroken clouds.12 mph57%30.04 "HgN/A
10:30 AM70 °FBroken clouds.12 mph53%30.04 "HgN/A
10:00 AM70 °FPartly sunny.7 mph57%30.04 "HgN/A
9:30 AM68 °FPartly sunny.2 mph60%30.04 "HgN/A
9:00 AM66 °FPartly sunny.3 mph60%30.04 "HgN/A
8:30 AM64 °FPartly sunny.5 mph68%30.04 "HgN/A
8:00 AM63 °FPartly sunny.5 mph73%30.04 "HgN/A
7:30 AM63 °FPartly sunny.5 mph73%30.04 "HgN/A
7:00 AM61 °FPartly sunny.1 mph77%30.04 "HgN/A
6:30 AM57 °FClear.No wind82%30.04 "Hg10 mi
6:00 AM57 °FClear.3 mph82%30.04 "Hg10 mi
5:30 AM57 °FClear.3 mph82%30.04 "Hg10 mi
5:00 AM57 °FClear.3 mph82%30.04 "Hg10 mi
Weather by CustomWeather, © 2015

See weather overviewHow to use our weather pages